KD8OZS Weather Reports


time (UTC)temp
C
wind
direction
speed
KPH
gust
KPH
rain 1hr
cm
rain 24hr
cm
rain mn
cm
humidity
%
barometer
mb
20260505114543 15 242 0.0 0.0 0.00 0.05 0.05 86 999.2
20260505114039 15 242 0.0 0.0 0.00 0.05 0.05 85 999.2
20260505113536 15 241 1.6 1.6 0.00 0.05 0.05 83 998.5
20260505113032 15 249 0.0 0.0 0.00 0.05 0.05 84 998.8
20260505112528 15 245 0.0 0.0 0.00 0.05 0.05 83 998.8
20260505112026 15 240 1.6 1.6 0.00 0.05 0.05 83 998.7
20260505111520 15 242 0.0 0.0 0.18 0.05 0.05 83 998.7
20260505111017 15 250 0.0 0.0 0.18 0.05 0.05 81 999.0
20260505110514 15 240 1.6 1.6 0.00 0.03 0.03 79 998.5
20260505101945 16 244 1.6 1.6 0.00 0.03 0.03 75 998.8
20260505101438 16 240 1.6 1.6 0.00 0.03 0.03 75 998.6
20260505100934 16 241 3.2 3.2 0.00 0.03 0.03 76 998.7
20260505100432 16 242 3.2 3.2 0.00 0.03 0.03 74 998.6
20260505095927 16 229 4.8 4.8 0.00 0.03 0.03 74 998.5
20260505095425 16 242 0.0 1.6 0.00 0.03 0.03 74 998.5
20260505094920 16 250 4.8 4.8 0.00 0.03 0.03 73 998.5
20260505094418 16 232 4.8 4.8 0.00 0.03 0.03 74 998.5
20260505093914 16 241 1.6 1.6 0.00 0.03 0.03 73 998.4
20260505093411 17 244 1.6 1.6 0.00 0.03 0.03 72 998.3
20260505092908 17 264 1.6 1.6 0.00 0.03 0.03 72 998.2
20260505092406 16 233 3.2 4.8 0.00 0.03 0.03 72 998.3
20260505091903 17 239 1.6 3.2 0.00 0.03 0.03 72 998.2
20260505091401 17 228 3.2 3.2 0.00 0.03 0.03 71 998.3
20260505090858 17 243 1.6 1.6 0.00 0.03 0.03 72 998.1
20260505090356 17 254 1.6 1.6 0.00 0.03 0.03 72 998.2
20260505085853 17 229 3.2 3.2 0.00 0.03 0.03 71 997.9
20260505085351 17 226 4.8 4.8 0.00 0.03 0.03 70 998.0
20260505084849 17 240 1.6 3.2 0.00 0.03 0.03 71 998.1
20260505084347 17 247 3.2 3.2 0.00 0.03 0.03 70 998.0
20260505083845 17 241 4.8 4.8 0.00 0.03 0.03 71 997.8
20260505083342 17 246 1.6 1.6 0.00 0.03 0.03 71 997.9
20260505082838 17 217 6.4 9.7 0.00 0.03 0.03 72 997.5
20260505082334 17 245 4.8 4.8 0.00 0.03 0.03 72 997.7
20260505081831 17 247 1.6 1.6 0.00 0.03 0.03 74 997.7
20260505081328 17 228 3.2 4.8 0.00 0.03 0.03 74 997.5
20260505080825 17 232 4.8 9.7 0.00 0.03 0.03 73 997.9
20260505080320 17 282 4.8 8.0 0.13 0.03 0.03 71 997.8
20260505075816 18 217 8.0 11.3 0.13 0.03 0.03 68 997.6
20260505075313 17 216 4.8 4.8 0.00 0.00 0.00 70 997.5
20260505074810 17 252 1.6 3.2 0.00 0.00 0.00 73 997.5
20260505074307 17 239 1.6 1.6 0.00 0.00 0.00 72 997.5
20260505073805 18 254 6.4 8.0 0.00 0.00 0.00 70 997.1
20260505073303 18 230 4.8 4.8 0.00 0.00 0.00 67 997.3
20260505072800 18 250 3.2 4.8 0.00 0.00 0.00 68 997.1
20260505072255 18 238 1.6 1.6 0.00 0.00 0.00 69 997.3
20260505071751 18 252 1.6 1.6 0.00 0.00 0.00 69 997.0
20260505071248 18 234 1.6 1.6 0.00 0.00 0.00 68 997.0
20260505070746 18 234 3.2 3.2 0.00 0.00 0.00 66 997.0
20260505070242 18 45 3.2 3.2 0.00 0.00 0.00 67 996.8
20260505065738 18 242 0.0 0.0 0.00 0.00 0.00 66 997.1
20260505065235 18 251 1.6 1.6 0.00 0.00 0.00 66 997.0
20260505064732 18 254 1.6 1.6 0.00 0.00 0.00 66 997.0
20260505064229 18 227 1.6 3.2 0.00 0.00 0.00 66 996.9
20260505063727 18 227 0.0 0.0 0.00 0.00 0.00 66 997.3
20260505063223 18 230 4.8 4.8 0.00 0.00 0.00 66 997.0
20260505062719 18 235 1.6 3.2 0.00 0.00 0.00 66 997.1
20260505062217 18 214 6.4 9.7 0.00 0.00 0.00 66 997.0
20260505061714 18 250 1.6 1.6 0.00 0.00 0.00 68 997.1
20260505061212 18 224 1.6 1.6 0.00 0.00 0.00 67 997.4
20260505060709 18 253 1.6 3.2 0.00 0.00 0.00 67 997.5
20260505060206 18 249 1.6 1.6 0.00 0.00 0.00 68 997.4
20260505055701 18 227 1.6 3.2 0.00 0.00 0.00 66 997.6
20260505055158 18 247 3.2 3.2 0.00 0.00 0.00 67 997.3
20260505054655 18 232 1.6 3.2 0.00 0.00 0.00 67 997.4
20260505054153 18 242 0.0 1.6 0.00 0.00 0.00 67 997.5
20260505053650 18 236 0.0 0.0 0.00 0.00 0.00 67 997.8
20260505053147 18 240 0.0 1.6 0.00 0.00 0.00 66 997.7
20260505052644 18 239 1.6 1.6 0.00 0.00 0.00 67 997.7
20260505052141 18 240 3.2 3.2 0.00 0.00 0.00 68 997.8
20260505051637 18 252 1.6 1.6 0.00 0.00 0.00 67 997.8
20260505051136 18 261 8.0 11.3 0.00 0.00 0.00 68 997.9
20260505050633 18 229 0.0 0.0 0.00 0.00 0.00 68 997.9
20260505050132 18 231 3.2 3.2 0.00 0.00 0.00 68 998.1
20260505041601 18 245 0.0 0.0 0.00 0.00 0.00 68 998.3
20260505041059 18 241 1.6 1.6 0.00 0.00 0.00 68 998.1
20260505040556 18 238 1.6 1.6 0.00 0.00 0.00 69 998.1
20260505040053 18 239 0.0 0.0 0.00 0.00 0.00 69 998.1
20260505035549 18 235 1.6 1.6 0.00 0.00 0.00 70 998.1
20260505035046 18 239 0.0 1.6 0.00 0.00 0.00 70 998.1
20260505034542 18 192 3.2 4.8 0.00 0.00 0.00 69 998.1
20260505034039 18 225 1.6 1.6 0.00 0.00 0.00 69 998.0
20260505033536 18 239 0.0 1.6 0.00 0.00 0.00 69 998.1
20260505033034 18 233 0.0 1.6 0.00 0.00 0.00 70 998.2
20260505032532 18 262 1.6 3.2 0.00 0.00 0.00 69 998.2
20260505032028 18 217 1.6 3.2 0.00 0.00 0.00 69 998.0
20260505031526 18 241 0.0 1.6 0.00 0.00 0.00 69 998.3
20260505031022 18 230 1.6 1.6 0.00 0.00 0.00 69 998.2
20260505030519 18 238 0.0 1.6 0.00 0.00 0.00 69 998.2
20260505030015 18 220 3.2 3.2 0.00 0.00 0.00 69 998.1
20260505025511 18 237 1.6 1.6 0.00 0.00 0.00 69 998.4
20260505025010 18 261 1.6 3.2 0.00 0.00 0.00 69 998.3
20260505024506 18 235 0.0 1.6 0.00 0.00 0.00 69 998.1
20260505024004 18 202 9.7 17.7 0.00 0.00 0.00 69 998.2
20260505023500 18 222 1.6 1.6 0.00 0.00 0.00 69 998.2
20260505022958 18 119 8.0 9.7 0.00 0.00 0.00 70 998.5
20260505022455 18 245 1.6 1.6 0.00 0.00 0.00 69 998.5
20260505021952 18 237 0.0 1.6 0.00 0.00 0.00 70 998.3
20260505021449 18 251 0.0 1.6 0.00 0.00 0.00 69 998.4
20260505020944 18 230 0.0 1.6 0.00 0.00 0.00 69 998.2
20260505020440 18 235 1.6 1.6 0.00 0.00 0.00 69 998.0
20260505015937 18 102 6.4 8.0 0.00 0.00 0.00 69 998.3
20260505015434 18 239 1.6 1.6 0.00 0.00 0.00 69 998.3
20260505014931 18 224 3.2 3.2 0.00 0.00 0.00 69 998.4
20260505014428 18 238 0.0 1.6 0.00 0.00 0.00 69 998.3
20260505013925 18 235 0.0 1.6 0.00 0.00 0.00 68 998.2
20260505013422 18 262 0.0 1.6 0.00 0.00 0.00 68 998.5
20260505012920 18 184 3.2 3.2 0.00 0.00 0.00 68 998.3
20260505012418 18 235 0.0 0.0 0.00 0.00 0.00 68 998.2
20260505011914 18 229 1.6 3.2 0.00 0.00 0.00 67 998.3
20260505011410 18 238 0.0 0.0 0.00 0.00 0.00 67 998.2
20260505010907 18 226 1.6 1.6 0.00 0.00 0.00 67 998.1
20260505010403 18 244 0.0 0.0 0.00 0.00 0.00 66 998.1
20260505005859 18 236 1.6 1.6 0.00 0.00 0.00 65 998.1
20260505005356 18 239 1.6 1.6 0.00 0.00 0.00 64 998.2
20260505004854 18 236 1.6 1.6 0.00 0.00 0.00 64 998.0
20260505004349 18 242 0.0 0.0 0.00 0.00 0.00 63 998.0
20260505003847 18 230 1.6 1.6 0.00 0.00 0.00 63 997.7
20260505003344 18 237 1.6 1.6 0.00 0.00 0.00 63 998.0
20260505002840 18 237 0.0 1.6 0.00 0.00 0.00 62 998.1
20260505002337 19 237 0.0 1.6 0.00 0.00 0.00 63 998.2
20260505001836 19 234 1.6 1.6 0.00 0.00 0.00 62 998.0
20260505001332 19 243 0.0 0.0 0.00 0.00 0.00 61 997.9
20260505000829 20 237 3.2 3.2 0.00 0.00 0.00 60 997.9
20260505000327 20 244 0.0 0.0 0.00 0.00 0.00 60 998.1
20260504235824 20 242 3.2 3.2 0.00 0.00 0.00 60 998.0
20260504235321 20 240 3.2 4.8 0.00 0.00 0.00 59 997.8
20260504234817 20 235 3.2 4.8 0.00 0.00 0.00 58 997.7
20260504234315 20 256 3.2 3.2 0.00 0.00 0.00 58 997.9
20260504233811 20 260 1.6 1.6 0.00 0.00 0.00 56 997.8
20260504233307 21 234 1.6 3.2 0.00 0.00 0.00 55 997.6
20260504232804 21 245 4.8 8.0 0.00 0.00 0.00 54 997.6
20260504232303 21 240 3.2 3.2 0.00 0.00 0.00 54 997.3
20260504231758 21 328 1.6 1.6 0.00 0.00 0.00 54 997.4
20260504231254 21 216 1.6 1.6 0.00 0.00 0.00 55 997.5
20260504230750 21 312 3.2 3.2 0.00 0.00 0.00 56 997.5
20260504230248 21 245 3.2 3.2 0.00 0.00 0.00 54 997.4
20260504225747 21 240 1.6 1.6 0.00 0.00 0.00 54 997.6
20260504225243 22 242 3.2 3.2 0.00 0.00 0.00 53 997.7
20260504224740 22 234 8.0 9.7 0.00 0.00 0.00 53 997.8
20260504224238 22 240 1.6 1.6 0.00 0.00 0.00 54 997.8
20260504223734 21 220 4.8 4.8 0.00 0.00 0.00 54 998.0
20260504223229 21 225 4.8 8.0 0.00 0.00 0.00 55 998.1
20260504222727 21 246 3.2 4.8 0.00 0.00 0.00 53 997.9
20260504222223 21 272 1.6 1.6 0.00 0.00 0.00 53 997.9
20260504221721 22 213 8.0 11.3 0.00 0.00 0.00 54 998.0
20260504221218 21 236 4.8 8.0 0.00 0.00 0.00 53 997.9
20260504220714 21 244 4.8 4.8 0.00 0.00 0.00 54 997.9
20260504220212 21 229 4.8 4.8 0.00 0.00 0.00 54 998.0
20260504215709 22 232 1.6 3.2 0.00 0.00 0.00 54 997.9
20260504215206 21 222 6.4 11.3 0.00 0.00 0.00 54 998.0
20260504214701 21 262 6.4 9.7 0.00 0.00 0.00 54 998.1
20260504214158 22 282 4.8 8.0 0.00 0.00 0.00 54 997.9
20260504213655 22 207 3.2 4.8 0.00 0.00 0.00 54 997.9
20260504213151 22 242 11.3 14.5 0.00 0.00 0.00 52 998.1
20260504212648 22 227 8.0 9.7 0.00 0.00 0.00 53 998.0
20260504212144 22 246 1.6 3.2 0.00 0.00 0.00 54 998.1
20260504211642 22 213 4.8 9.7 0.00 0.00 0.00 55 998.0
20260504211138 22 243 4.8 4.8 0.00 0.00 0.00 54 997.7
20260504210636 23 244 4.8 8.0 0.00 0.00 0.00 51 997.8
20260504210132 22 240 3.2 4.8 0.00 0.00 0.00 52 998.0
20260504205630 22 242 3.2 4.8 0.00 0.00 0.00 53 998.3
20260504205127 22 213 1.6 3.2 0.00 0.00 0.00 53 998.0
20260504204626 22 236 1.6 3.2 0.00 0.00 0.00 55 998.3
20260504204124 21 238 1.6 1.6 0.00 0.00 0.00 55 998.4
20260504203622 22 237 4.8 4.8 0.00 0.00 0.00 55 998.4
20260504203120 22 251 3.2 4.8 0.00 0.00 0.00 53 998.3
20260504202614 23 212 6.4 8.0 0.00 0.00 0.00 53 998.2
20260504202111 22 209 4.8 11.3 0.00 0.00 0.00 52 998.4
20260504201608 22 138 4.8 11.3 0.00 0.00 0.00 54 998.6
20260504201106 22 224 4.8 4.8 0.00 0.00 0.00 54 998.4
20260504200603 22 233 1.6 1.6 0.00 0.00 0.00 54 998.7
20260504200059 22 223 4.8 8.0 0.00 0.00 0.00 54 998.6
20260504195555 22 250 1.6 3.2 0.00 0.00 0.00 56 998.6
20260504195052 22 223 3.2 4.8 0.00 0.00 0.00 53 998.5
20260504194549 22 236 3.2 3.2 0.00 0.00 0.00 53 998.5
20260504194044 23 227 1.6 4.8 0.00 0.00 0.00 52 998.5
20260504193541 23 216 11.3 16.1 0.00 0.00 0.00 52 998.6
20260504193039 22 255 3.2 3.2 0.00 0.00 0.00 55 998.9
20260504192537 23 245 11.3 16.1 0.00 0.00 0.00 53 998.6
20260504192035 23 136 6.4 11.3 0.00 0.00 0.00 52 998.8
20260504191533 23 261 1.6 3.2 0.00 0.00 0.00 53 998.9
20260504191029 22 255 4.8 4.8 0.00 0.00 0.00 56 998.8
20260504190525 22 242 4.8 8.0 0.00 0.00 0.00 52 998.9
20260504190021 22 245 6.4 9.7 0.00 0.00 0.00 54 998.9
20260504185518 22 244 1.6 3.2 0.00 0.00 0.00 56 999.0
20260504185015 22 198 4.8 8.0 0.00 0.00 0.00 53 999.1
20260504184510 21 179 3.2 4.8 0.00 0.00 0.00 56 999.2
20260504184006 21 232 3.2 3.2 0.00 0.00 0.00 57 999.3
20260504183503 22 240 1.6 1.6 0.00 0.00 0.00 56 999.5
20260504183002 22 235 3.2 3.2 0.00 0.00 0.00 55 999.6
20260504182458 21 222 4.8 4.8 0.00 0.00 0.00 57 999.5
20260504181955 21 223 8.0 14.5 0.00 0.00 0.00 56 999.8
20260504181452 21 231 4.8 9.7 0.00 0.00 0.00 57 999.6
20260504180950 21 224 4.8 8.0 0.00 0.00 0.00 56 999.6
20260504180449 20 223 8.0 11.3 0.00 0.00 0.00 56 999.5
20260504175947 20 223 1.6 3.2 0.00 0.00 0.00 58 999.7
20260504175444 20 228 6.4 8.0 0.00 0.00 0.00 56 999.7
20260504174941 21 239 3.2 3.2 0.00 0.00 0.00 58 999.5
20260504174439 20 206 3.2 3.2 0.00 0.00 0.00 58 999.8
20260504173936 20 239 6.4 8.0 0.00 0.00 0.00 57 999.6
20260504173432 20 239 4.8 4.8 0.00 0.00 0.00 59 999.9
20260504172930 20 138 3.2 3.2 0.00 0.00 0.00 58 999.8
20260504172426 20 244 3.2 3.2 0.00 0.00 0.00 59 1000.1
20260504171922 20 218 4.8 8.0 0.00 0.00 0.00 59 999.9
20260504171420 20 237 1.6 3.2 0.00 0.00 0.00 58 999.8
20260504170917 20 241 4.8 4.8 0.00 0.00 0.00 57 1000.0
20260504170413 20 236 4.8 4.8 0.00 0.00 0.00 56 1000.2
20260504160332 18 203 3.2 4.8 0.00 0.00 0.00 55 1000.7
20260504150756 18 229 4.8 8.0 0.00 0.00 0.00 56 1001.0
20260504150253 17 218 1.6 1.6 0.00 0.00 0.00 59 1000.9
20260504141223 16 179 1.6 1.6 0.00 0.00 0.00 58 1001.1
20260504140720 16 223 3.2 4.8 0.00 0.00 0.00 58 1001.1
20260504140215 16 241 1.6 1.6 0.00 0.00 0.00 58 1001.1
20260504130643 15 219 4.8 4.8 0.00 0.00 0.00 61 1001.7
20260504130140 14 207 3.2 4.8 0.00 0.00 0.00 60 1001.6
20260504120104 12 226 3.2 4.8 0.00 0.00 0.00 65 1001.7